This is the latest recevied weather packets stored in our database for station/object WB0YAF-8. If no packets are shown the sender has not sent any weather packets the latest 10 day(s).
| Time | Temp. | Humidity | Pressure | Rain* | Wind** | Luminosity | Snow |
|---|---|---|---|---|---|---|---|
| 1778142568 | 0° C | 51% | 1019.3 hPa | 0 mm | - | - | - |
| 1778142268 | -0.56° C | 56% | 1019.8 hPa | 0 mm | - | - | - |
| 1778141968 | -0.56° C | 59% | 1019.8 hPa | 0 mm | - | - | - |
| 1778141668 | -0.56° C | 64% | 1019.8 hPa | 0 mm | - | - | - |
| 1778141111 | -0.56° C | 71% | 1019.8 hPa | 0 mm | - | - | - |
| 1778140811 | -0.56° C | 77% | 1019.8 hPa | 0 mm | - | - | - |
| 1778139767 | -1.11° C | 80% | 1019.8 hPa | 0 mm | - | - | - |
| 1778139466 | -1.11° C | 81% | 1019.8 hPa | 0 mm | - | - | - |
| 1778139166 | -1.11° C | 82% | 1019.8 hPa | 0 mm | - | - | - |
| 1778138867 | -1.11° C | 82% | 1019.8 hPa | 0 mm | - | - | - |
| 1778138568 | -1.11° C | 83% | 1019.8 hPa | 0 mm | - | - | - |
| 1778137973 | -1.11° C | 83% | 1019.8 hPa | 0 mm | - | - | - |
| 1778137674 | -1.67° C | 83% | 1019.8 hPa | 0 mm | - | - | - |
| 1778137374 | -1.67° C | 82% | 1019.8 hPa | 0 mm | - | - | - |
| 1778137074 | -1.67° C | 82% | 1019.8 hPa | 0 mm | - | - | - |
| 1778136774 | -1.67° C | 82% | 1019.8 hPa | 0 mm | - | - | - |
| 1778136474 | -1.11° C | 82% | 1019.8 hPa | 0 mm | - | - | - |
| 1778136174 | -1.11° C | 81% | 1019.8 hPa | 0 mm | - | - | - |
| 1778135875 | -1.11° C | 81% | 1019.8 hPa | 0 mm | - | - | - |
| 1778135574 | -1.11° C | 82% | 1019.8 hPa | 0 mm | - | - | - |
| 1778135274 | -0.56° C | 82% | 1019.8 hPa | 0 mm | - | - | - |
| 1778134973 | -0.56° C | 82% | 1019.8 hPa | 0 mm | - | - | - |
| 1778134674 | -0.56° C | 82% | 1019.8 hPa | 0 mm | - | - | - |
| 1778134374 | -0.56° C | 81% | 1019.8 hPa | 0 mm | - | - | - |
| 1778134075 | -0.56° C | 81% | 1019.8 hPa | 0 mm | - | - | - |
* Rain latest hour (hover to see other rain measurements)
** Current wind speed in m/s (hover to see current wind gust speed)